Home > Time Zones > World Clock > Weather > Ghana > Accra > Past weeks

Flag for Ghana Weather past 2 weeks in Accra, Ghana

Now
75 °F

Passing clouds.


Feels Like: 75 °F
Forecast: N/A
Wind: 15 mph from Southwest

Location: Accra Airport

Current Time: Aug 31, 2015 at 10:48:00 PM

Latest Report: Aug 31, 2015 at 9:00 PM


Visibility: N/A

Pressure: 29.98 "Hg

Humidity: 89%

Dew point: 72 °F

Location of AccraLocation

Historic Weather in Accra — Graph

°F

Accra temperature yesterday

Maximum temperature yesterday: 84 °F (at 1:00 PM)
Minimum temperature yesterday: 75 °F (at 1:00 AM)
Average temperature yesterday: 78 °F

Past Weeks' High & Low Weather Summary

 TemperatureHumidityPressure
High84 °F (Aug 23, 12:00 PM)94% (Aug 16, 9:00 PM)30.07 "Hg (Aug 16, 9:00 PM)
Low73 °F (Aug 17, 5:00 AM)66% (Aug 23, 12:00 PM)29.83 "Hg (Aug 23, 3:00 PM)
Average78 °F84%29.93 "Hg
* Reported Aug 16 9:00 PM — Aug 31 9:00 PM, Accra, Weather by CustomWeather, © 2015

Note: Actual official high and low records may vary slightly from our data, if they occured in-between our weather recording intervals... More about our weather records

Advertising

Accra weather history for previous 24 hours

 ConditionsComfort  
Time TempWeatherWind HumidityBarometerVisibility
9:00 PM
Mon, Aug 31
75 °FPassing clouds.15 mph89%29.98 "HgN/A
8:00 PM75 °FPassing clouds.16 mph89%29.98 "HgN/A
6:47 PM77 °FPassing clouds.20 mph83%29.95 "HgN/A
5:45 PM77 °FPassing clouds.20 mph83%29.92 "HgN/A
4:52 PM77 °FPassing clouds.18 mph83%29.92 "HgN/A
3:52 PM79 °FPassing clouds.18 mph79%29.92 "HgN/A
2:50 PM81 °FPassing clouds.20 mph74%29.92 "HgN/A
1:46 PM84 °FPassing clouds.18 mph66%29.95 "HgN/A
12:50 PM82 °FPartly sunny.17 mph70%29.95 "HgN/A
11:52 AM84 °FPartly sunny.15 mph66%29.98 "HgN/A
10:51 AM82 °FPartly sunny.14 mph70%30.01 "HgN/A
9:51 AM81 °FBroken clouds.17 mph74%30.01 "HgN/A
9:00 AM77 °FBroken clouds.12 mph83%30.04 "HgN/A
7:49 AM75 °FOvercast.12 mph89%30.01 "HgN/A
6:50 AM75 °FScattered clouds.10 mph89%29.98 "HgN/A
6:00 AM75 °FScattered clouds.13 mph83%29.98 "HgN/A
5:00 AM75 °FPassing clouds.10 mph83%29.95 "HgN/A
4:00 AM75 °FOvercast.10 mph89%29.98 "HgN/A
3:00 AM75 °FPassing clouds.14 mph89%29.98 "HgN/A
2:00 AM75 °FMostly cloudy.13 mph89%29.98 "HgN/A
1:00 AM77 °FMostly cloudy.14 mph83%30.01 "HgN/A
12:00 AM77 °FOvercast.12 mph83%30.01 "HgN/A
11:00 PM
Sun, Aug 30
77 °FPassing clouds.15 mph89%30.04 "HgN/A
10:00 PM77 °FPassing clouds.14 mph89%30.01 "HgN/A
Weather by CustomWeather, © 2015

See weather overviewHow to use our weather pages